Location: Newark
(21.1200°N, 73.4000°E)
Time: 01:24:04
(UTC+00:00)

Courier 1B Rocket - Pass Details

Date: 20 January 2020
Orbit: 920 x 1202 km, 28.2° (Epoch: 19 February)

Event Time Altitude Azimuth Distance (km) Brightness Sun altitude
Rises 10:31:08 0° 281° (W) 3,674 8.6 27.1°
Reaches altitude 10° 10:33:59 10° 288° (WNW) 2,690 7.9 26.6°
Maximum altitude 10:40:06 44° 359° (N) 1,269 5.7 25.5°
Drops below altitude 10° 10:46:00 10° 71° (ENE) 2,604 6.8 24.4°
Sets 10:48:44 0° 77° (ENE) 3,546 7.4 23.8°
